THOR ABLESTAR DEB, 329

Orbit data source: Space-Track

THOR ABLESTAR DEB, 329 is space debris in LEO originally from a launch on Thu, 29 Jun 1961 UTC launched from the Air Force Eastern Test Range (AFETR). Debris objects in space refer to the collection of defunct objects orbiting the Earth. Examples of debris include non-operational satellites, rocket bodies, and fragments generated from explosions, collisions, or faulty payload assembly.

Loading next visibility...
Identifier
329, 1961-015DF
Orbit
LEO
Last TLE update
20 hours ago
Origin
Manufacturer
Unknown
Mission
Spacecraft
Bus & Motor
Unknown
Mass
Unknown
Launch date (UTC)
1961-06-29 (64 years ago)
Launch vehicle
Unknown
Launch site
Air Force Eastern Test Range (AFETR)
Object type
Payload
Rocket body
Debris
Shape & HBR
Unknown
Radar Cross Section
Small (<0.1 m²)

Expand to show TLE details & history

TLE from 20 hours ago
0 THOR ABLESTAR DEB
1 00329U 61015DF  25141.19974190  .00000132  00000-0  23603-3 0  9993
2 00329  66.7801 213.1451 0121879 257.1494 132.8337 13.65983150176474
Epoch: 2025-05-21T04:47Z
TLE epoch observation values (Epoch: 2025-05-21T04:47:37.7Z)
Latitude
28.3037°
Longitude
-84.56078°
Altitude
1,078.506 km
Speed
7.285 km/s
True Right ascension
15h 05m 44s
True Declination
28° 09' 60"
Sunlit
Object was in full shadow at epoch
Visualization orbit readout
Latitude
26.10882°
Longitude
68.13202°
Altitude
1,038.875 km
Speed
7.324 km/s
Apparent Right ascension
23h 47m 06s
Apparent Declination
-4° 32' 53"
Sunlit
Object is in daylight
Visualization observer readout
Local Sidereal Time
09:42:30
Azimuth
313.34° NW
Elevation
-44.847°
Doppler factor
1
Orbital elements
Apogee altitude
1,102.518 km
Perigee altitude
922.366 km
Semi-major axis
7,390.579 km
Eccentricity
0.01219
Inclination
66.7801°
RAAN
213.1451°
Arg. of periapsis
257.1494°
True anomaly
Unknown
Mean anomaly
132.8337°
Eccentric anomaly
Unknown
Mean motion
3.41606 °/min
Orbital period
105.38 mins
BSTAR
0.00023603
Loading maneuver chart data...
Loading SW <> Apogee altitude chart data...

THOR ABLESTAR DEB Visibility forecast

Observer location: undefined°, undefined°

Span
Click to sort rows by Start time (UTC) header in descending order
Start Az.
Max El. time (UTC)
Max El. Az.
Max El.
End time (UTC)
End Az.
12 mins2025-05-22 05:20:21.413Z170.547° S2025-05-22 05:26:21.413Z107.115° ESE30.082°2025-05-22 05:32:21.413Z46.065° ENE
11 mins2025-05-22 07:09:21.413Z239.213° WSW2025-05-22 07:14:21.413Z301.014° NW35.637°2025-05-22 07:20:21.413Z15.919° NNE
11 mins2025-05-22 14:35:21.413Z347.542° N2025-05-22 14:40:21.413Z48.872° ENE33.947°2025-05-22 14:46:21.413Z120.77° SE
10 mins2025-05-22 16:24:21.413Z308.07° NW2025-05-22 16:28:21.413Z261.016° W31.03°2025-05-22 16:34:21.413Z188.434° SSW
|